Date,TemperatureHighF,TemperatureAvgF,TemperatureLowF,DewpointHighF,DewpointAvgF,DewpointLowF,HumidityHigh,HumidityAvg,HumidityLow,PressureMaxIn,PressureMinIn,WindSpeedMaxMPH,WindSpeedAvgMPH,GustSpeedMaxMPH,PrecipitationSumIn
2013-1-1,43.2,39.5,36.0,42.6,37.7,30.3,100,93,79,30.13,29.95,10,1,14,0.41
2013-1-2,42.3,38.2,35.6,42.0,35.5,30.7,100,90,82,30.17,29.98,6,2,10,0.06
2013-1-3,47.1,35.7,26.6,32.9,28.6,23.8,92,76,45,30.32,30.15,7,2,10,0.00
2013-1-4,41.7,29.8,21.2,31.4,23.1,20.0,96,78,47,30.40,30.32,9,2,14,0.00
2013-1-5,46.8,33.8,20.1,34.6,25.9,18.2,93,75,42,30.43,30.23,6,1,8,0.04
2013-1-6,45.7,39.7,36.3,38.5,35.0,28.9,96,84,65,30.27,30.11,9,3,15,0.01
2013-1-7,54.0,37.8,28.2,31.5,28.0,24.6,88,70,37,30.43,30.27,5,2,8,0.00
2013-1-8,60.4,37.0,22.8,35.6,27.2,20.8,93,73,23,30.42,30.29,4,1,7,0.00
2013-1-9,49.5,41.8,32.0,46.2,38.0,28.1,100,87,70,30.48,30.31,6,1,9,0.02
2013-1-10,64.0,53.2,41.9,52.9,48.2,41.6,100,84,65,30.49,30.24,11,2,15,0.01
2013-1-11,61.7,56.6,50.7,60.6,52.1,45.0,100,86,62,30.24,30.06,11,2,12,0.08
2013-1-12,71.4,58.6,51.6,67.1,57.2,51.4,100,95,80,30.18,30.03,5,1,7,0.05
2013-1-13,71.1,57.6,46.9,61.7,54.9,46.7,100,92,65,30.10,29.97,5,1,6,0.25
2013-1-14,58.8,48.5,39.7,58.6,47.9,38.8,100,98,94,30.31,30.03,8,2,9,1.26
2013-1-15,46.8,42.6,39.7,46.5,42.3,39.7,100,99,99,30.21,29.96,6,2,8,1.37
2013-1-16,52.9,48.8,44.1,52.9,48.5,43.8,100,99,95,30.07,29.90,6,2,10,0.76
2013-1-17,44.2,39.1,32.7,44.0,37.3,32.0,100,93,84,30.09,29.96,7,2,11,0.53
2013-1-18,43.5,32.4,24.1,36.8,30.0,23.7,100,91,71,30.53,30.42,4,1,5,0.51
2013-1-19,50.7,32.4,24.1,37.4,29.5,23.7,100,90,59,30.43,30.17,5,1,5,0.02
2013-1-20,54.9,35.9,24.8,40.2,30.3,24.1,100,83,43,30.19,30.10,11,2,14,0.00
2013-1-21,46.9,32.7,24.8,36.7,20.6,4.1,100,68,23,30.16,30.03,17,5,24,0.01
2013-1-22,32.2,26.5,20.1,5.0,-5.2,-16.8,42,26,11,30.29,30.14,14,7,23,0.00
2013-1-23,41.7,29.9,23.5,20.9,8.9,-5.3,77,43,26,30.35,30.08,12,4,18,0.00
2013-1-24,40.1,31.1,23.0,29.7,10.1,-5.2,80,43,18,30.44,30.06,13,5,17,0.00
2013-1-25,33.3,28.3,22.8,33.3,20.8,3.9,100,76,43,30.86,30.07,7,2,9,0.00
2013-1-26,38.7,33.2,26.2,33.6,30.0,25.0,100,88,70,30.39,30.15,8,2,12,0.22
2013-1-27,50.0,36.9,23.5,37.4,31.2,22.6,97,81,55,30.42,30.31,5,1,7,0.04
2013-1-28,61.3,48.0,37.4,47.8,41.7,34.7,96,80,53,30.36,30.21,12,2,16,0.07
2013-1-29,73.2,53.9,44.4,57.5,49.5,44.2,100,87,51,30.24,29.91,4,1,7,0.01
2013-1-30,69.3,59.3,44.4,59.4,54.1,39.6,100,84,63,29.92,29.49,20,5,27,1.30
2013-1-31,44.4,36.4,32.9,39.6,24.2,18.3,85,62,41,30.00,29.59,18,10,27,0.02
2013-2-1,39.4,25.6,18.0,31.8,12.0,3.3,88,57,35,30.36,29.91,21,7,35,0.01
2013-2-2,29.5,24.3,16.3,28.1,20.4,11.8,95,85,63,30.36,30.05,9,2,12,0.00
2013-2-3,37.6,33.6,29.3,34.3,29.6,20.3,100,86,63,30.15,29.94,12,4,17,0.25
2013-2-4,41.4,31.6,21.9,29.4,24.8,19.1,91,76,60,30.14,29.96,5,1,7,0.00
2013-2-5,55.6,40.0,31.5,40.9,33.4,28.7,93,78,51,30.01,29.93,10,2,14,0.00
2013-2-6,59.2,39.9,25.9,43.6,29.0,19.5,100,72,22,30.22,30.01,7,2,11,0.00
2013-2-7,58.5,45.6,35.4,40.6,34.2,28.9,79,66,41,30.20,29.96,8,4,12,0.00
2013-2-8,57.6,44.8,37.0,48.2,36.1,26.0,95,74,36,30.26,29.91,13,4,18,0.04
2013-2-9,55.4,38.9,25.3,31.3,22.9,11.8,89,57,21,30.36,30.24,5,2,8,0.00
2013-2-10,37.9,37.9,37.9,23.2,23.2,23.2,55,55,55,30.27,30.27,0,0,0,0.00
2013-2-11,37.9,37.9,37.9,23.2,23.2,23.2,55,55,55,30.27,30.27,0,0,0,0.00
2013-2-12,47.7,39.6,37.9,34.5,25.2,23.2,64,56,51,30.27,29.90,2,0,4,0.15
2013-2-13,47.3,43.1,38.3,45.2,38.5,32.9,97,84,61,29.96,29.65,11,4,15,0.24
2013-2-14,52.2,40.4,31.6,33.9,30.7,27.1,89,70,44,30.07,29.96,10,3,13,0.00
2013-2-15,57.4,38.7,27.5,41.7,33.6,26.0,95,83,45,30.10,29.97,17,3,23,0.11
2013-2-16,40.6,32.2,24.3,33.8,23.5,9.9,100,73,33,30.06,29.94,11,3,16,0.00
2013-2-17,39.9,29.1,22.5,15.2,8.9,2.7,68,44,22,30.24,30.04,16,7,25,0.01
2013-2-18,61.3,39.3,19.4,31.0,20.8,13.4,81,52,25,30.31,28.02,11,4,16,0.00
2013-2-19,52.9,42.9,35.4,43.6,27.8,4.6,96,60,18,30.11,29.90,20,7,30,0.19
2013-2-20,43.2,33.9,24.8,20.4,12.6,3.9,72,44,20,30.21,30.10,12,4,16,0.00
2013-2-21,25.7,22.8,22.5,18.0,17.2,14.7,80,79,63,30.21,30.17,2,1,3,0.00
2013-2-22,22.6,22.6,22.6,17.4,17.4,17.4,80,80,80,30.19,30.19,1,1,2,0.00
2013-2-23,61.5,41.3,22.6,49.4,35.1,17.4,95,79,56,30.19,29.80,8,2,10,0.43
2013-2-24,57.6,44.5,31.6,45.9,29.6,14.3,96,62,20,30.04,29.84,10,4,15,0.00
2013-2-25,60.1,42.6,28.9,32.3,28.5,24.3,87,61,31,30.04,29.86,8,2,14,0.00
2013-2-26,59.7,48.2,39.2,47.3,38.8,29.0,94,71,53,29.88,29.41,18,8,24,0.43
2013-2-27,46.4,42.0,39.2,36.2,34.1,31.3,85,74,58,29.79,29.61,16,8,24,0.01
2013-2-28,39.0,36.6,34.2,31.8,27.7,23.4,87,70,56,29.93,29.73,14,8,25,0.00
2013-3-1,42.8,37.4,34.3,35.5,31.7,29.3,88,80,64,29.92,29.85,10,5,14,0.00
2013-3-2,38.8,34.3,29.8,34.4,27.0,17.8,93,75,58,29.98,29.85,10,4,17,0.05
2013-3-3,34.3,30.1,25.3,21.6,18.4,14.3,82,62,52,30.04,29.96,10,4,15,0.00
2013-3-4,53.4,38.0,22.5,28.5,19.9,11.5,82,51,21,30.14,29.98,6,2,11,0.00
2013-3-5,48.4,41.6,35.1,48.4,36.6,25.7,100,83,58,30.00,29.57,18,5,30,1.25
2013-3-6,34.9,31.8,28.8,31.2,27.8,23.2,96,85,71,30.19,29.73,18,7,27,0.01
2013-3-7,38.1,34.2,31.8,29.1,27.6,25.6,88,77,66,30.30,30.16,6,2,9,0.00
2013-3-8,53.1,37.6,25.5,31.0,26.6,23.1,92,67,35,30.36,30.26,8,2,10,0.00
2013-3-9,69.8,45.7,27.1,37.2,28.5,15.4,90,60,14,30.30,30.12,6,2,11,0.00
2013-3-10,74.7,58.6,43.5,37.2,31.1,21.2,74,40,15,30.16,29.98,11,5,21,0.04
2013-3-11,63.9,57.9,51.1,52.3,44.7,28.6,100,65,31,30.02,29.74,15,6,24,0.37
2013-3-12,52.9,45.0,34.2,51.3,37.0,29.4,100,75,43,30.03,29.78,11,5,16,0.13
2013-3-13,44.1,35.9,28.4,35.3,23.3,12.9,97,65,34,30.24,30.00,18,6,28,0.00
2013-3-14,48.9,36.7,26.6,22.0,16.5,13.3,60,44,26,30.32,30.16,11,5,14,0.00
2013-3-15,62.8,44.3,28.0,40.0,30.6,19.6,85,61,38,30.19,29.87,13,3,20,0.01
2013-3-16,75.2,57.3,41.4,50.5,45.0,38.4,95,67,37,29.87,29.70,20,6,27,0.02
2013-3-17,62.2,54.9,49.3,55.0,49.9,45.9,100,84,65,29.96,29.84,8,3,11,0.12
2013-3-18,61.5,50.9,43.9,52.2,46.6,39.5,100,86,59,29.92,29.74,10,4,14,0.69
2013-3-19,57.9,48.5,36.9,50.6,26.2,-5.5,100,52,10,30.07,29.78,18,7,40,0.04
2013-3-20,54.9,41.2,27.3,30.0,17.1,-1.9,78,45,10,30.09,29.80,16,5,27,0.00
2013-3-21,40.5,31.1,23.7,14.9,8.3,3.3,54,39,22,29.98,29.86,15,6,21,0.00
2013-3-22,47.5,34.0,19.0,20.8,13.7,5.2,79,47,20,30.04,29.95,8,2,12,0.00
2013-3-23,57.0,45.2,36.5,37.8,29.7,20.7,71,55,42,30.00,29.79,5,1,7,0.00
2013-3-24,54.5,47.2,43.0,47.3,42.6,36.1,96,84,65,29.81,29.35,11,4,17,0.76
2013-3-25,45.0,35.8,32.0,42.8,30.7,26.1,92,82,66,29.91,29.47,21,12,33,0.11
2013-3-26,40.3,34.9,31.3,31.4,29.1,26.6,92,80,62,30.19,29.90,11,7,16,0.01
2013-3-27,45.9,37.0,32.2,31.1,25.5,20.6,91,65,39,30.27,30.18,10,5,14,0.00
2013-3-28,55.8,39.4,25.3,30.2,23.9,16.1,89,59,23,30.29,30.19,10,3,15,0.00
2013-3-29,53.1,39.0,26.1,37.0,26.8,19.9,89,66,29,30.30,30.21,14,4,19,0.00
2013-3-30,63.9,49.3,36.5,44.4,39.7,34.6,93,72,41,30.21,29.97,9,2,13,0.00
2013-3-31,61.9,52.1,47.3,55.7,49.9,42.0,100,92,73,29.98,29.80,11,3,15,0.40
2013-4-1,62.8,50.7,42.4,52.2,41.0,28.8,99,75,34,30.02,29.86,17,5,28,0.01
2013-4-2,43.2,40.6,40.6,32.0,32.0,31.3,71,71,63,30.03,30.02,1,1,3,0.00
2013-4-3,40.6,40.6,40.6,32.0,32.0,32.0,71,71,71,30.02,30.02,1,1,3,0.00
2013-4-4,40.6,40.6,40.6,32.0,32.0,32.0,71,71,71,30.02,30.02,1,1,3,0.00
2013-4-5,40.6,40.6,40.6,32.0,32.0,32.0,71,71,71,30.02,30.02,1,1,3,0.00
2013-4-6,74.7,51.6,40.6,43.2,30.9,13.2,93,53,10,30.02,29.75,10,2,13,0.00
2013-4-7,73.6,59.7,41.5,46.3,39.1,30.2,82,50,27,29.95,29.83,14,4,22,0.00
2013-4-8,78.8,61.2,44.8,56.1,47.8,41.7,90,65,34,29.91,29.79,12,3,19,0.00
2013-4-9,84.7,65.6,47.3,57.7,52.7,46.2,100,68,32,29.98,29.82,13,2,16,0.00
2013-4-10,86.2,68.4,52.5,61.5,55.3,48.1,100,69,28,29.91,29.69,10,3,16,0.00
2013-4-11,86.9,69.8,55.0,63.1,55.3,43.9,97,66,23,29.72,29.46,9,3,16,0.30
2013-4-12,66.2,59.5,47.8,62.1,51.6,37.0,100,78,40,29.73,29.39,13,4,21,0.48
2013-4-13,71.6,55.2,39.9,48.6,38.2,22.5,100,61,16,29.85,29.72,13,4,20,0.00
2013-4-14,79.3,59.9,40.8,50.0,40.2,30.7,89,55,19,29.87,29.73,10,3,17,0.04
2013-4-15,81.0,64.7,54.5,59.1,53.8,50.2,95,71,39,29.92,29.75,7,3,11,0.04
2013-4-16,85.8,68.8,51.1,62.1,55.5,49.0,94,66,36,30.04,29.90,8,2,12,0.00
2013-4-17,71.2,63.6,59.5,63.5,61.0,58.3,100,92,74,30.11,29.88,10,2,15,1.36
2013-4-18,84.2,70.0,55.8,66.6,57.5,48.5,100,70,32,29.88,29.65,10,3,18,0.02
2013-4-19,73.0,61.8,47.1,64.6,52.7,33.6,97,73,58,29.83,29.50,15,5,27,0.51
2013-4-20,63.5,49.3,36.1,36.1,30.8,19.8,83,53,20,30.67,29.83,10,4,17,0.00
2013-4-21,70.0,53.2,36.5,40.8,33.1,24.1,93,53,19,30.20,30.06,9,3,12,0.00
2013-4-22,72.5,57.5,43.9,42.1,35.9,21.3,75,48,15,30.16,29.94,8,3,11,0.00
2013-4-23,77.9,59.7,43.7,49.0,38.3,29.7,86,48,24,30.03,29.81,7,2,11,0.00
2013-4-24,75.2,58.1,46.0,61.5,50.8,44.1,94,79,44,30.00,29.75,12,3,21,0.12
2013-4-25,67.8,53.1,38.3,45.1,36.5,28.2,86,57,24,30.13,30.00,6,3,13,0.00
2013-4-26,71.8,54.7,35.6,46.5,35.4,13.0,93,57,11,30.22,30.08,6,1,8,0.00
2013-4-27,61.3,57.1,53.2,56.3,50.7,44.6,95,80,66,30.14,29.95,6,1,11,0.07
2013-4-28,61.5,56.0,51.8,58.1,54.1,50.2,100,93,81,29.96,29.74,9,2,14,0.74
2013-4-29,74.7,60.9,52.9,60.6,55.5,52.6,100,85,50,29.84,29.75,6,2,9,0.00
2013-4-30,88.2,67.6,50.2,61.5,54.3,48.5,100,68,31,29.91,29.77,8,2,11,0.00
2013-5-1,77.2,66.9,55.0,58.3,53.6,48.9,93,65,40,30.03,29.91,11,4,15,0.00
2013-5-2,78.6,67.3,58.6,56.9,52.6,49.1,81,61,40,30.03,29.94,10,4,19,0.00
2013-5-3,72.0,63.9,53.1,55.7,48.6,39.2,91,60,35,29.99,29.84,11,5,19,0.00
2013-5-4,68.9,61.0,52.9,51.0,43.2,32.6,77,52,40,29.85,29.73,15,7,23,0.05
2013-5-5,63.0,55.1,51.4,55.9,50.5,46.9,95,84,74,29.80,29.60,12,4,16,0.31
2013-5-6,73.6,60.9,52.9,58.8,53.0,43.1,100,79,36,29.70,29.56,9,3,14,0.00
2013-5-7,67.1,56.8,47.3,56.7,52.0,46.5,100,85,64,29.75,29.68,6,1,9,0.00
2013-5-8,69.8,61.2,55.2,60.6,57.3,54.1,100,88,61,29.85,29.71,8,2,12,0.00
2013-5-9,81.1,65.0,55.2,64.2,58.7,54.6,100,83,42,29.92,29.82,7,2,11,0.00
2013-5-10,79.0,66.3,55.9,64.2,59.7,54.8,97,81,54,29.89,29.73,10,2,17,0.01
2013-5-11,75.9,64.7,56.5,66.2,60.1,51.4,100,86,56,29.75,29.62,10,2,17,0.05
2013-5-12,65.3,56.3,43.5,53.2,40.8,27.9,95,61,27,29.91,29.74,9,3,27,0.06
2013-5-13,67.3,52.0,36.3,45.0,33.4,20.6,96,57,19,30.00,29.89,13,3,24,0.01
2013-5-14,78.1,58.6,37.2,54.3,44.5,35.0,94,64,32,30.04,29.80,10,2,17,0.00
2013-5-15,87.8,69.6,52.7,62.1,56.7,51.4,97,69,36,29.92,29.76,10,3,20,0.00
2013-5-16,82.4,67.9,53.8,63.0,58.7,53.5,100,76,45,29.86,29.78,6,2,9,0.01
2013-5-17,87.4,69.0,57.7,65.5,61.4,55.7,100,81,42,29.91,29.80,12,2,17,0.04
2013-5-18,74.5,66.4,60.6,69.7,65.0,60.2,100,95,81,29.90,29.82,6,2,11,1.25
2013-5-19,84.2,72.1,64.4,72.7,67.1,64.1,100,86,58,29.88,29.78,7,2,11,0.05
2013-5-20,86.4,72.6,64.2,69.9,66.3,64.0,100,83,49,29.93,29.79,5,1,7,0.05
2013-5-21,90.5,74.4,63.0,72.3,66.2,60.3,100,79,44,29.87,29.71,10,2,20,0.12
2013-5-22,88.5,70.6,60.8,70.4,65.0,60.5,100,85,46,29.80,29.65,9,3,16,0.74
2013-5-23,83.1,68.1,61.0,69.4,63.5,57.1,100,87,52,29.79,29.66,10,2,24,0.48
2013-5-24,71.6,61.6,47.8,58.3,46.5,31.2,92,62,25,30.07,29.78,9,4,14,0.00
2013-5-25,75.6,59.1,41.7,50.9,43.7,30.1,96,63,21,30.16,29.99,7,2,10,0.00
2013-5-26,79.7,65.2,54.0,54.2,50.7,43.1,92,63,33,30.10,29.97,5,2,11,0.01
2013-5-27,86.2,69.8,54.3,63.6,57.0,51.6,93,68,37,30.04,29.88,8,3,12,0.00
2013-5-28,88.0,74.5,59.4,65.8,61.9,58.1,97,69,38,30.00,29.87,6,2,12,0.07
2013-5-29,91.4,76.2,59.5,66.7,62.2,57.3,96,65,36,30.02,29.90,6,2,8,0.00
2013-5-30,91.8,77.3,61.5,69.5,61.5,55.9,95,62,33,30.05,29.89,10,2,16,0.06
2013-5-31,91.8,78.2,63.0,68.3,62.0,55.7,90,61,32,29.98,29.85,4,2,10,0.01
2013-6-1,91.6,79.3,63.9,68.9,63.9,59.1,93,62,40,29.90,29.74,6,2,11,0.00
2013-6-2,78.1,70.7,68.0,71.5,67.4,62.0,100,90,58,29.81,29.70,6,1,9,0.53
2013-6-3,83.1,73.3,63.5,71.3,65.3,56.9,100,79,44,29.82,29.70,8,2,13,0.08
2013-6-4,86.5,72.5,57.6,66.2,61.5,57.3,100,73,40,29.87,29.79,5,2,9,0.00
2013-6-5,90.3,74.2,62.2,68.9,65.3,60.1,100,76,46,29.88,29.71,6,2,12,0.31
2013-6-6,85.3,74.2,66.2,72.0,68.1,65.5,100,83,54,29.79,29.57,6,2,10,0.00
2013-6-7,84.4,73.7,67.6,73.2,68.1,62.6,100,84,53,29.68,29.52,7,2,12,0.39
2013-6-8,86.0,72.9,63.3,69.5,64.9,61.0,100,79,45,29.89,29.67,5,1,11,0.18
2013-6-9,90.7,73.2,63.3,71.9,66.9,62.9,100,83,46,29.95,29.80,7,2,17,0.64
2013-6-10,82.8,73.2,67.3,74.1,68.3,63.6,99,86,56,29.82,29.68,12,3,17,0.41
2013-6-11,87.1,73.7,63.7,70.5,65.8,62.7,100,79,46,29.85,29.74,6,2,11,0.04
2013-6-12,94.5,79.2,65.1,77.5,71.4,64.9,100,79,54,29.85,29.72,8,2,12,0.00
2013-6-13,86.7,74.8,64.9,75.5,71.0,64.0,100,89,68,29.73,29.54,13,3,21,0.38
2013-6-14,84.4,70.1,57.2,67.6,59.7,54.0,100,74,39,29.88,29.69,6,2,16,0.01
2013-6-15,87.1,72.2,57.2,64.2,60.8,56.3,100,72,39,29.96,29.85,6,2,9,0.00
2013-6-16,88.2,74.2,61.9,71.3,66.7,61.6,100,80,47,29.93,29.81,6,2,13,0.01
2013-6-17,88.9,76.2,67.6,73.3,70.3,67.2,100,83,55,29.87,29.74,6,2,10,0.15
2013-6-18,75.0,70.4,65.1,71.8,68.6,64.5,100,94,76,29.79,29.67,7,1,11,1.48
2013-6-19,88.7,72.8,63.1,70.9,66.4,62.9,100,83,46,29.92,29.76,4,1,6,0.24
2013-6-20,89.6,75.6,63.7,70.0,66.7,62.4,100,77,41,30.01,29.91,4,2,7,0.01
2013-6-21,90.1,77.0,66.2,71.0,67.2,63.7,97,74,44,30.06,29.95,6,2,11,0.39
2013-6-22,90.3,75.9,64.4,70.4,64.5,54.6,100,73,30,30.06,29.90,5,2,10,0.02
2013-6-23,92.3,77.2,62.8,70.0,65.7,62.2,100,72,38,30.03,29.91,4,1,8,0.00
2013-6-24,90.9,77.7,66.0,73.2,69.3,65.8,100,78,48,30.03,29.89,6,1,100,0.00
2013-6-25,79.3,72.3,67.8,74.1,70.4,67.6,100,94,83,29.97,29.90,3,0,4,0.09
2013-6-26,90.3,75.8,69.1,77.0,72.2,68.0,100,90,57,29.94,29.80,12,1,26,0.15
2013-6-27,86.4,74.1,66.7,77.9,71.8,66.3,100,93,69,29.85,29.67,6,1,12,1.02
2013-6-28,86.4,75.4,67.8,75.9,70.9,66.2,100,87,62,29.72,29.56,8,2,12,0.01
2013-6-29,87.1,76.0,67.1,71.8,66.8,60.3,100,77,42,29.62,29.55,6,2,12,0.01
2013-6-30,90.7,75.7,62.8,70.1,65.6,58.2,100,75,37,29.72,29.60,6,1,11,0.13
2013-7-1,89.2,75.5,68.0,73.3,69.1,64.9,100,83,45,29.83,29.69,13,2,21,0.02
2013-7-2,71.8,68.5,65.8,70.6,67.8,65.6,100,97,90,29.99,29.82,3,1,4,0.06
2013-7-3,77.5,71.3,66.4,74.8,69.6,66.1,100,95,80,30.11,29.97,6,2,11,0.63
2013-7-4,86.5,72.7,65.8,78.6,70.2,65.6,100,92,68,30.11,30.00,6,2,9,0.39
2013-7-5,88.7,76.5,68.5,75.2,70.9,67.8,100,85,53,30.09,30.02,5,1,8,0.05
2013-7-6,91.8,77.8,68.9,74.6,70.2,67.8,100,79,48,30.07,29.96,10,2,21,0.07
2013-7-7,80.1,72.2,67.6,74.7,70.3,67.2,100,94,74,30.08,29.98,6,1,11,0.20
2013-7-8,90.1,75.5,66.7,73.8,69.2,60.2,100,83,38,30.11,30.01,4,1,7,0.00
2013-7-9,71.6,70.0,65.1,71.3,69.7,64.9,100,99,99,30.07,30.03,1,1,2,0.00
2013-7-10,75.9,72.7,71.6,74.2,72.2,71.3,100,98,93,30.06,29.88,2,1,3,0.14
2013-7-11,89.1,76.6,70.2,76.5,71.7,68.4,100,86,57,29.93,29.82,6,1,10,0.00
2013-7-12,87.8,75.9,64.9,72.7,66.6,61.3,100,76,43,29.95,29.86,7,2,10,0.02
2013-7-13,89.6,76.6,64.6,69.3,65.9,63.1,100,72,44,30.05,29.93,8,3,12,0.00
2013-7-14,90.7,78.4,68.7,76.9,70.4,66.8,100,78,52,30.20,30.03,8,2,13,0.11
2013-7-15,93.9,80.0,67.3,73.3,69.8,66.6,100,74,44,30.26,30.16,5,1,8,0.01
2013-7-16,95.9,80.9,67.3,73.7,70.3,66.9,100,74,40,30.29,30.17,5,1,8,0.06
2013-7-17,95.9,80.2,69.4,77.2,73.0,69.2,100,81,49,30.25,30.11,6,2,12,0.00
2013-7-18,95.2,79.5,69.4,77.9,71.7,67.8,100,79,46,30.16,30.01,9,2,13,1.85
2013-7-19,93.7,79.2,68.0,76.8,72.4,67.6,100,82,51,30.07,29.91,5,1,11,0.00
2013-7-20,93.0,78.4,69.3,78.3,72.9,69.0,100,84,55,29.98,29.87,5,1,8,0.06
2013-7-21,87.3,75.2,70.3,77.6,72.6,69.6,100,92,68,29.97,29.88,6,1,10,0.12
2013-7-22,87.3,75.8,68.7,76.4,71.8,68.5,100,89,63,29.94,29.76,8,2,13,0.08
2013-7-23,88.7,77.6,70.3,74.8,71.9,68.8,99,84,57,29.85,29.75,8,3,13,0.04
2013-7-24,89.8,78.0,70.5,76.0,70.9,65.5,100,81,49,29.85,29.75,5,2,9,0.00
2013-7-25,87.1,75.3,63.7,70.6,64.7,60.5,100,73,45,30.01,29.83,6,2,8,0.00
2013-7-26,90.5,74.7,60.3,70.7,65.4,59.8,100,76,43,30.02,29.92,5,2,8,0.04
2013-7-27,70.2,70.2,70.2,69.0,69.0,69.0,96,96,96,29.96,29.96,0,0,0,0.00
2013-7-28,70.2,70.2,70.2,69.0,69.0,69.0,96,96,96,29.96,29.96,0,0,0,0.00
2013-7-29,70.2,70.2,70.2,69.0,69.0,69.0,96,96,96,29.96,29.96,0,0,0,0.00
2013-7-30,70.2,70.2,70.2,69.0,69.0,69.0,96,96,96,29.96,29.96,0,0,0,0.00
2013-7-31,70.2,70.2,70.2,69.0,69.0,69.0,96,96,96,29.96,29.96,0,0,0,0.00
2013-8-1,70.2,70.2,70.2,69.0,69.0,69.0,96,96,96,29.96,29.96,0,0,0,0.00
2013-8-2,70.2,70.2,70.2,69.0,69.0,69.0,96,96,96,29.96,29.96,0,0,0,0.00
2013-8-3,70.2,70.2,70.2,69.0,69.0,69.0,96,96,96,29.96,29.96,0,0,0,0.00
2013-8-4,70.2,70.2,70.2,69.0,69.0,69.0,96,96,96,29.96,29.96,0,0,0,0.00
2013-8-5,70.2,70.2,70.2,69.0,69.0,69.0,96,96,96,29.96,29.96,0,0,0,0.00
2013-8-6,70.2,70.2,70.2,69.0,69.0,69.0,96,96,96,29.96,29.96,0,0,0,0.00
2013-8-7,70.2,70.2,70.2,69.0,69.0,69.0,96,96,96,29.96,29.96,0,0,0,0.00
2013-8-8,84.9,76.0,70.2,77.5,73.4,69.0,100,92,75,29.96,29.90,4,1,8,1.52
2013-8-9,92.7,78.3,69.4,79.0,74.2,69.2,100,89,57,30.00,29.90,6,1,12,0.18
2013-8-10,87.6,75.1,71.4,80.4,73.9,70.5,100,96,76,30.05,29.98,7,1,11,0.81
2013-8-11,89.6,76.1,70.7,77.6,73.3,70.4,100,92,61,30.09,29.97,6,1,10,0.01
2013-8-12,89.1,76.1,70.3,77.8,73.2,69.9,100,92,65,30.04,29.91,5,1,8,1.00
2013-8-13,81.0,76.2,72.9,77.4,75.4,72.6,100,97,88,29.85,29.82,4,2,6,0.81
2013-8-27,72.9,72.6,72.3,72.7,72.2,71.6,100,99,97,29.99,29.98,0,0,0,0.26
2013-8-28,92.1,80.5,69.4,77.5,72.2,68.6,100,79,49,29.98,29.88,7,2,11,0.00
2013-8-29,94.5,83.7,70.9,77.3,72.8,68.3,100,72,45,29.93,29.85,5,2,11,0.00
2013-8-30,93.6,79.4,69.3,76.0,71.0,66.6,100,79,43,29.94,29.83,7,2,14,0.00
2013-8-31,91.6,76.2,70.9,78.4,73.1,67.7,100,91,55,29.89,29.80,8,1,12,0.05
2013-9-1,87.8,74.0,69.1,77.6,71.5,68.8,100,93,61,29.85,29.75,7,1,12,0.26
2013-9-2,87.8,76.8,69.3,75.6,72.2,69.0,100,87,62,29.87,29.76,6,1,10,0.00
2013-9-3,88.0,73.7,64.0,76.4,68.0,62.1,100,85,45,29.95,29.78,6,2,11,0.38
2013-9-4,87.8,71.1,60.1,70.4,62.8,55.8,100,79,34,30.05,29.95,4,1,6,0.01
2013-9-5,86.2,70.5,58.8,67.9,64.0,58.4,100,83,49,30.10,30.02,4,1,7,0.01
2013-9-6,89.6,72.7,60.3,69.1,64.6,60.0,100,79,41,30.11,29.99,4,1,7,0.00
2013-9-7,88.2,72.9,60.8,70.4,65.8,60.5,100,81,47,30.04,29.91,6,2,11,0.00
2013-9-8,88.7,74.0,63.3,74.3,68.1,63.1,100,84,50,29.94,29.88,4,1,8,0.00
2013-9-9,93.6,78.1,66.0,74.2,69.2,65.8,100,77,44,30.06,29.94,6,2,8,0.00
2013-9-10,92.8,76.4,68.5,73.3,70.7,68.1,100,85,46,30.16,30.04,4,1,8,0.00
2013-9-11,93.0,78.1,69.3,77.2,72.1,69.0,100,84,47,30.15,30.02,6,1,9,0.00
2013-9-12,89.1,74.5,67.6,78.1,71.6,65.7,100,92,63,30.02,29.81,5,1,12,0.54
2013-9-13,78.6,69.6,56.8,71.1,60.0,47.8,99,76,36,29.91,29.81,7,2,14,0.00
2013-9-14,80.1,62.7,49.5,57.6,52.2,45.5,100,73,33,30.02,29.91,7,2,11,0.00
2013-9-15,84.2,67.7,53.8,65.2,59.2,52.6,100,78,42,30.10,30.00,4,1,7,0.00
2013-9-16,79.0,66.8,58.8,70.2,63.0,58.6,100,88,70,30.12,30.03,4,1,6,0.00
2013-9-17,82.2,67.9,56.3,62.4,59.1,56.0,100,76,49,30.17,30.06,6,2,11,0.00
2013-9-18,68.4,63.2,58.1,64.1,60.2,56.0,100,90,73,30.15,30.06,5,1,7,0.30
2013-9-19,82.6,69.3,63.3,70.9,66.5,63.1,100,91,65,30.10,29.98,4,1,7,0.05
2013-9-20,86.5,72.0,63.7,73.4,67.3,63.2,100,87,54,30.00,29.81,6,1,11,0.01
2013-9-21,69.6,66.5,62.2,68.6,66.3,61.8,100,99,95,29.82,29.67,2,0,4,0.77
2013-9-22,78.1,63.9,54.3,65.6,57.8,54.1,100,83,47,29.88,29.73,6,1,9,0.04
2013-9-23,81.9,63.8,50.9,63.8,57.6,50.6,100,83,47,29.95,29.87,4,1,8,0.00
2013-9-24,82.8,67.8,56.3,64.1,60.3,56.0,100,80,45,29.99,29.81,5,2,8,0.00
2013-9-25,72.1,66.3,63.0,68.7,64.8,61.7,100,95,87,29.83,29.76,4,1,6,0.12
2013-9-26,81.1,68.1,58.3,67.6,62.1,56.9,100,84,46,29.96,29.80,6,1,8,0.05
2013-9-27,84.6,66.7,55.0,65.1,59.3,54.8,100,81,42,30.07,29.96,4,1,7,0.01
2013-9-28,82.6,66.0,55.0,61.9,58.3,54.6,100,80,40,30.15,30.02,6,1,11,0.00
2013-9-29,78.1,64.9,56.1,62.7,59.2,55.3,100,83,54,30.06,29.93,4,1,6,0.00
2013-9-30,81.1,66.5,58.8,66.9,61.5,58.4,100,86,49,30.00,29.90,4,1,7,0.00
2013-10-1,82.2,66.2,55.2,66.8,60.5,55.0,100,84,50,30.07,29.97,6,1,10,0.00
2013-10-2,86.2,67.5,55.9,68.4,61.6,55.7,100,85,45,30.11,29.99,4,1,6,0.00
2013-10-3,85.5,69.2,60.6,69.2,63.8,60.4,100,85,49,30.06,29.97,3,1,5,0.00
2013-10-4,87.3,70.1,59.0,69.6,63.8,58.7,100,84,46,30.10,30.00,4,1,8,0.00
2013-10-5,90.3,71.1,58.5,69.8,64.6,58.2,100,83,44,30.08,29.92,6,1,10,0.00
2013-10-6,88.7,73.5,60.4,70.2,63.4,60.0,100,74,42,29.94,29.74,6,2,11,0.00
2013-10-7,73.8,62.4,50.5,66.6,55.8,49.4,100,82,44,30.01,29.73,7,2,15,0.00
2013-10-8,76.1,58.6,44.2,54.0,48.8,44.0,100,75,37,30.08,30.00,7,2,12,0.00
2013-10-9,79.7,61.2,48.9,54.8,51.2,47.8,97,74,37,30.13,30.02,6,2,8,0.00
2013-10-10,77.4,59.7,43.9,56.4,51.5,43.1,100,78,45,30.07,29.95,4,1,7,0.00
2013-10-11,82.0,63.4,48.0,61.4,55.2,47.8,100,79,37,30.00,29.88,6,1,8,0.00
2013-10-12,79.0,66.4,59.7,65.3,61.9,58.3,100,87,58,30.03,29.91,4,0,5,0.00
2013-10-13,76.5,66.6,61.0,67.0,63.8,60.7,100,91,68,30.13,30.03,4,0,6,0.00
2013-10-14,83.3,68.9,60.1,66.7,61.9,58.1,99,81,48,30.15,30.01,6,1,10,0.00
2013-10-15,80.2,65.8,56.5,63.0,59.6,56.0,100,83,49,30.08,29.92,6,1,8,0.00
2013-10-16,70.9,64.1,59.0,63.7,61.3,58.4,100,91,74,29.97,29.87,4,1,6,0.00
2013-10-17,67.5,62.6,56.1,67.0,61.6,53.0,100,96,87,29.91,29.74,7,1,11,0.00
2013-10-18,68.2,54.8,46.6,55.6,49.4,45.9,100,84,49,29.99,29.87,4,1,7,0.00
2013-10-19,66.9,55.3,48.4,55.8,51.3,45.2,100,87,63,29.93,29.79,9,2,14,0.00
2013-10-20,68.5,49.0,36.9,49.6,40.2,32.6,100,77,28,30.02,29.92,4,1,6,0.00
2013-10-21,72.0,52.4,37.0,51.7,44.3,37.0,100,78,37,30.04,29.89,8,2,13,0.00
2013-10-22,65.3,54.8,46.6,55.0,50.2,45.1,100,85,62,29.91,29.74,7,1,9,0.00
2013-10-23,54.7,47.5,34.2,52.0,41.8,31.1,100,81,60,29.99,29.68,12,4,25,0.00
2013-10-24,53.6,41.5,31.8,42.0,36.5,30.6,100,84,58,30.12,29.97,6,2,13,0.00
2013-10-25,51.6,39.0,31.1,37.4,30.4,26.4,90,73,40,30.31,30.11,6,2,9,0.00
2013-10-26,58.6,42.1,26.1,38.9,31.3,24.8,96,70,34,30.25,29.98,7,2,11,0.00
2013-10-27,69.8,55.6,43.3,51.5,43.9,37.2,87,67,41,30.03,29.95,7,2,11,0.00
2013-10-28,69.6,57.8,52.0,60.7,53.9,49.1,100,87,63,30.17,30.02,6,1,11,0.00
2013-10-29,73.8,60.9,53.8,60.6,55.6,52.1,100,85,50,30.25,30.12,4,1,9,0.00
2013-10-30,78.6,62.9,55.6,62.7,57.2,53.6,100,84,48,30.18,30.03,7,1,13,0.00
2013-10-31,72.0,63.5,54.0,62.1,56.5,53.7,100,80,54,30.05,29.59,9,2,21,0.00
2013-11-1,74.7,65.1,49.6,66.6,56.2,48.5,100,76,42,29.70,29.57,12,3,20,0.00
2013-11-2,65.5,50.6,41.9,53.4,42.3,34.3,100,78,34,29.96,29.69,12,2,18,0.15
2013-11-3,59.9,44.5,35.1,47.2,37.3,33.5,100,79,41,30.24,29.95,6,1,8,0.00
2013-11-4,66.2,48.6,35.1,41.9,35.3,31.1,93,65,27,30.34,30.22,6,2,10,0.00
2013-11-5,69.6,53.0,43.5,38.4,34.5,26.5,71,52,20,30.36,30.23,6,2,9,0.00
2013-11-6,78.3,59.6,40.6,56.5,46.8,33.2,85,65,40,30.25,29.96,10,2,15,0.00
2013-11-7,61.7,52.3,36.0,57.1,45.0,32.2,100,78,44,30.14,29.91,9,2,15,0.26
2013-11-8,58.1,40.9,29.1,38.1,28.8,17.9,100,68,22,30.25,30.14,6,1,10,0.00
2013-11-9,57.7,41.9,28.9,37.3,30.8,26.0,90,68,33,30.21,30.09,12,2,17,0.00
2013-11-10,67.6,45.5,30.0,43.8,32.4,18.5,100,67,19,30.94,30.08,10,2,17,0.00
2013-11-11,66.0,44.8,28.9,36.8,29.0,14.2,91,61,15,30.22,30.04,6,1,8,0.00
2013-11-12,48.6,37.7,27.7,41.7,27.0,13.7,77,65,52,30.43,30.00,11,4,21,0.00
2013-11-13,45.7,30.9,20.5,26.0,20.1,16.8,89,66,35,30.50,30.34,6,1,13,0.00
2013-11-14,58.1,34.9,19.8,32.2,21.2,7.1,92,65,14,30.37,30.17,7,1,10,0.00
2013-11-15,53.1,39.9,25.7,47.2,32.9,20.4,100,78,45,30.20,30.06,5,2,9,0.15
2013-11-16,72.9,54.5,46.0,57.6,50.9,45.8,100,89,54,30.11,29.99,6,2,8,0.01
2013-11-17,67.5,56.3,44.2,61.7,54.3,44.0,100,94,75,30.01,29.73,7,1,11,0.18
2013-11-18,64.8,57.3,43.2,60.5,43.7,26.5,99,66,24,30.02,29.73,13,4,17,0.14
2013-11-19,54.0,43.4,31.8,32.9,28.2,23.4,86,57,31,30.13,30.02,7,3,11,0.00
2013-11-20,60.1,45.9,34.0,33.0,29.2,25.3,80,54,28,30.24,30.09,8,3,14,0.00
2013-11-21,71.6,52.1,37.0,52.2,41.7,28.9,94,69,44,30.30,30.15,8,3,11,0.00
2013-11-22,55.4,52.7,46.9,55.1,52.2,46.5,100,98,94,30.20,30.06,5,0,7,0.20
2013-11-23,54.9,47.0,31.8,54.6,37.3,16.7,100,71,31,30.25,30.06,9,4,15,0.01
2013-11-24,37.6,28.9,21.7,16.6,8.5,1.2,57,43,22,30.44,30.25,9,4,13,0.00
2013-11-25,39.2,31.4,22.5,29.4,15.1,7.2,82,52,33,30.36,30.09,6,2,8,0.00
2013-11-26,46.2,40.8,34.3,46.0,40.0,29.7,100,97,83,30.08,29.61,6,2,8,1.56
2013-11-27,41.5,31.5,27.0,41.3,28.0,18.4,100,87,68,30.15,29.64,9,2,13,0.22
2013-11-28,44.4,28.9,18.7,27.3,21.8,16.0,93,76,49,30.36,30.15,5,1,8,0.05
2013-11-29,53.1,32.3,20.1,34.7,25.4,19.2,100,79,36,30.47,30.35,4,1,6,0.00
2013-11-30,57.9,36.9,27.1,33.8,28.5,24.9,93,75,36,30.40,30.19,6,2,10,0.00
2013-12-1,55.4,38.8,23.4,38.5,31.7,22.5,100,78,46,30.19,29.90,9,1,12,0.00
2013-12-2,51.8,45.8,41.7,43.4,39.7,34.4,90,79,70,29.90,29.71,4,1,5,0.00
2013-12-3,62.8,50.6,43.5,50.4,45.9,42.6,100,85,63,29.80,29.73,6,1,8,0.00
2013-12-4,74.8,54.6,42.6,55.9,49.4,42.4,99,85,49,29.90,29.78,7,1,10,0.00
2013-12-5,69.4,58.4,47.5,63.7,55.5,47.2,100,91,70,29.94,29.82,6,0,9,0.02
2013-12-6,59.9,51.9,39.9,59.5,51.6,39.5,100,99,95,30.05,29.79,8,2,12,0.77
2013-12-7,40.5,37.8,34.9,40.1,35.0,31.7,100,90,82,30.31,30.04,9,4,11,0.00
2013-12-8,43.7,40.5,35.1,42.8,39.5,32.4,100,96,90,30.24,29.96,6,3,8,0.40
2013-12-9,51.4,45.4,41.5,51.2,45.2,41.3,99,99,99,30.03,29.92,4,1,6,0.24
2013-12-10,44.4,37.2,25.5,44.0,33.6,23.4,100,87,56,30.24,29.86,12,3,18,0.24
2013-12-11,47.5,31.3,22.1,35.0,26.0,21.8,100,83,39,30.32,30.18,6,1,8,0.00
2013-12-12,40.3,29.8,22.5,26.7,20.8,11.8,95,72,33,30.36,30.25,10,2,16,0.00
2013-12-13,48.4,32.5,18.1,29.6,22.9,16.4,94,71,31,30.27,30.06,5,1,8,0.00
2013-12-14,45.1,41.6,37.8,45.1,36.2,25.4,100,83,56,30.08,29.64,7,2,10,0.50
2013-12-15,44.8,37.3,32.7,44.5,34.1,28.0,100,88,81,30.04,28.43,10,6,14,0.02
2013-12-16,49.5,35.9,29.1,36.4,31.2,28.4,97,84,58,30.11,29.96,9,3,11,0.00
2013-12-17,55.2,38.8,27.0,41.5,32.9,26.7,100,83,50,30.03,29.82,13,4,19,0.02
2013-12-18,47.1,34.4,25.2,28.4,23.3,19.9,89,66,35,30.20,30.11,10,3,15,0.00
2013-12-19,54.0,37.3,22.1,34.4,27.6,20.6,95,72,31,30.20,30.03,5,1,7,0.00
2013-12-20,58.8,43.0,29.8,41.5,34.5,28.0,95,75,42,30.08,29.96,5,1,8,0.00
2013-12-21,75.4,60.7,43.9,61.3,51.9,40.3,90,74,59,29.96,29.72,12,3,17,0.00
2013-12-22,73.6,60.1,52.9,61.7,56.9,52.6,100,91,65,29.95,29.72,13,2,20,1.19
2013-12-23,54.7,46.3,35.6,54.4,43.9,29.4,100,91,79,30.19,29.90,9,3,14,0.24
2013-12-24,36.9,31.9,23.7,29.7,21.5,13.2,79,66,44,30.34,30.17,13,4,21,0.01
2013-12-25,44.4,28.5,17.6,24.9,19.3,13.8,89,70,38,30.32,30.17,7,2,10,0.00
2013-12-26,49.3,32.8,23.4,32.9,25.9,21.0,95,78,45,30.26,30.17,6,2,11,0.00
2013-12-27,53.4,33.4,22.1,34.2,25.1,20.4,95,75,32,30.35,30.23,6,1,9,0.00
2013-12-28,44.2,33.8,21.7,39.4,28.9,20.5,100,83,60,30.28,29.94,6,1,7,0.34
2013-12-29,47.8,43.8,39.2,47.8,43.5,39.1,100,99,94,29.93,29.69,12,3,16,0.48
2013-12-30,42.3,39.8,35.4,42.0,36.7,32.4,100,89,77,30.08,29.89,6,3,9,0.01
2013-12-31,43.7,33.0,26.1,34.3,27.6,24.4,100,83,49,30.27,30.06,11,2,16,0.00
2014-1-1,52.2,32.8,22.5,35.8,27.3,21.8,100,83,38,30.23,29.97,5,1,8,0.00
2014-1-2,38.8,32.2,20.5,38.6,30.5,12.5,100,93,68,29.98,29.61,17,4,24,0.22